EW1783 Weather Reports


Display with metric or nautical units.
time (UTC)temp
F
wind
direction
speed
MPH
gust
MPH
rain 1hr
in
rain 24hr
in
rain mn
in
humidity
%
barometer
mb
20260509161554 61 57 0.0 0.0 0.00 0.00 0.00 68 1008.3
20260509160050 60 59 0.0 0.0 0.00 0.00 0.00 69 1008.6
20260509154551 60 59 0.0 0.0 0.00 0.00 0.00 71 1008.5
20260509153050 60 65 0.0 2.0 0.00 0.00 0.00 71 1008.8
20260509151543 59 66 0.0 0.0 0.00 0.00 0.00 72 1008.6
20260509150046 59 53 0.0 0.0 0.00 0.00 0.00 72 1008.8
20260509144603 58 22 0.0 0.0 0.00 0.00 0.00 75 1009.0
20260509143037 57 14 0.0 0.0 0.00 0.00 0.00 77 1009.0
20260509141535 56 14 0.0 0.0 0.00 0.00 0.00 78 1008.8
20260509140027 55 47 0.0 0.0 0.00 0.00 0.00 78 1008.6
20260509134526 55 47 0.0 0.0 0.00 0.00 0.00 78 1008.5
20260509133024 55 47 0.0 0.0 0.00 0.00 0.00 78 1008.5
20260509131523 54 19 0.0 0.0 0.00 0.00 0.00 78 1008.7
20260509130019 54 335 0.0 0.0 0.00 0.00 0.00 77 1008.7
20260509124516 54 81 0.0 0.0 0.00 0.00 0.00 76 1008.7
20260509123015 54 81 0.0 0.0 0.00 0.00 0.00 76 1008.7
20260509121523 53 81 0.0 0.0 0.00 0.00 0.00 77 1008.8
20260509120014 53 18 0.0 0.0 0.00 0.00 0.00 76 1008.8
20260509114510 53 327 0.0 0.0 0.00 0.00 0.00 73 1008.8
20260509113008 53 327 0.0 0.0 0.00 0.00 0.00 76 1008.6
20260509111510 52 327 0.0 0.0 0.00 0.00 0.00 79 1008.4
20260509110005 52 327 0.0 0.0 0.00 0.00 0.00 79 1008.5
20260509104515 52 330 0.0 0.0 0.00 0.00 0.00 79 1008.5
20260509103004 52 60 0.0 0.0 0.00 0.00 0.00 79 1008.3
20260509101504 52 60 0.0 0.0 0.00 0.00 0.00 79 1008.0
20260509100003 52 60 0.0 0.0 0.00 0.00 0.00 79 1007.9
20260509094507 52 360 0.0 0.0 0.00 0.00 0.00 79 1007.8
20260509093001 52 360 0.0 0.0 0.00 0.00 0.00 78 1007.8
20260509091501 52 360 0.0 0.0 0.00 0.00 0.00 78 1007.7
20260509090107 52 360 0.0 0.0 0.00 0.00 0.00 78 1007.8
20260509084602 52 360 0.0 0.0 0.00 0.00 0.00 77 1007.9
20260509083057 52 360 0.0 0.0 0.00 0.00 0.00 77 1007.9
20260509081557 52 360 0.0 0.0 0.00 0.00 0.00 77 1008.0
20260509080059 52 360 0.0 0.0 0.00 0.00 0.00 78 1008.1
20260509074558 52 360 0.0 0.0 0.00 0.00 0.00 79 1008.1
20260509073055 52 360 0.0 0.0 0.00 0.00 0.00 79 1007.9
20260509071557 51 360 0.0 0.0 0.00 0.00 0.00 79 1008.0
20260509070050 51 360 0.0 0.0 0.00 0.00 0.00 79 1008.1
20260509064548 51 360 0.0 0.0 0.00 0.00 0.00 78 1008.1
20260509063046 51 360 0.0 0.0 0.00 0.00 0.00 78 1008.3
20260509061549 51 360 0.0 0.0 0.00 0.00 0.00 76 1008.4
20260509060052 51 360 0.0 0.0 0.00 0.00 0.00 77 1008.5
20260509054549 51 360 0.0 0.0 0.00 0.00 0.00 78 1008.5
20260509053041 51 360 0.0 0.0 0.00 0.00 0.00 79 1008.6
20260509051540 51 360 0.0 0.0 0.00 0.00 0.00 79 1008.4
20260509050049 50 360 0.0 0.0 0.00 0.00 0.00 79 1008.4
20260509044546 50 360 0.0 0.0 0.00 0.00 0.00 78 1008.5
20260509043035 50 360 0.0 0.0 0.00 0.00 0.00 78 1008.8
20260509041534 50 360 0.0 0.0 0.00 0.00 0.00 76 1008.8
20260509040031 51 360 0.0 0.0 0.00 0.00 0.00 76 1008.8
20260509034531 51 360 0.0 0.0 0.00 0.00 0.00 75 1008.9
20260509033031 52 360 0.0 0.0 0.00 0.00 0.00 74 1008.9
20260509031532 53 360 0.0 0.0 0.00 0.00 0.00 72 1008.9
20260509030032 54 360 0.0 0.0 0.00 0.00 0.00 71 1008.9
20260509024529 55 360 0.0 0.0 0.00 0.00 0.00 69 1009.0
20260509023031 55 360 0.0 0.0 0.00 0.00 0.00 68 1009.2
20260509021528 56 360 0.0 0.0 0.00 0.00 0.00 66 1009.3
20260509020028 57 360 0.0 0.0 0.00 0.00 0.00 63 1009.3
20260509014527 58 360 0.0 0.0 0.00 0.00 0.00 61 1009.0
20260509013037 59 360 0.0 0.0 0.00 0.00 0.00 59 1009.1
20260509011526 60 360 0.0 0.0 0.00 0.00 0.00 57 1009.0
20260509010025 61 360 0.0 0.0 0.00 0.00 0.00 56 1009.0
20260509004526 62 360 0.0 0.0 0.00 0.00 0.00 51 1009.0
20260509003025 63 360 0.0 0.0 0.00 0.00 0.00 53 1009.0
20260509001524 64 360 0.0 0.0 0.00 0.00 0.00 51 1008.8
20260509000023 65 360 0.0 0.0 0.00 0.00 0.00 48 1008.7
20260508234523 66 360 0.0 0.0 0.00 0.00 0.00 47 1008.6
20260508233021 66 360 0.0 0.0 0.00 0.00 0.00 43 1008.4
20260508231521 67 219 0.0 0.0 0.00 0.00 0.00 44 1008.4
20260508230040 67 219 0.0 0.0 0.00 0.00 0.00 43 1008.4
20260508224542 67 219 0.0 0.0 0.00 0.00 0.00 42 1008.5
20260508223027 68 219 0.0 0.0 0.00 0.00 0.00 41 1008.5
20260508221518 68 219 0.0 0.0 0.00 0.00 0.00 39 1008.4
20260508220018 68 209 0.0 0.0 0.00 0.00 0.00 38 1008.5
20260508214517 68 207 0.0 0.0 0.00 0.00 0.00 38 1008.5
20260508213016 68 249 0.0 0.0 0.00 0.00 0.00 38 1008.6
20260508211515 68 234 0.0 0.0 0.00 0.00 0.00 37 1008.7
20260508210015 69 269 0.0 0.0 0.00 0.00 0.00 35 1008.7
20260508204518 69 263 0.0 1.0 0.00 0.00 0.00 35 1008.7
20260508203013 70 281 0.0 1.0 0.00 0.00 0.00 33 1008.7
20260508201512 72 266 0.0 2.0 0.00 0.00 0.00 33 1008.8
20260508200014 73 267 0.0 1.0 0.00 0.00 0.00 32 1008.8
20260508194509 74 211 0.0 4.0 0.00 0.00 0.00 29 1008.9
20260508193007 74 291 0.0 4.0 0.00 0.00 0.00 32 1009.1
20260508191505 72 350 0.0 1.0 0.00 0.00 0.00 33 1009.3
20260508190005 73 273 0.0 3.0 0.00 0.00 0.00 32 1009.5
20260508184503 74 261 0.0 1.0 0.00 0.00 0.00 31 1009.7
20260508183001 74 253 0.0 4.0 0.00 0.00 0.00 32 1009.8
20260508181602 73 256 0.0 3.0 0.00 0.00 0.00 31 1009.9
20260508180104 72 286 0.0 4.0 0.00 0.00 0.00 33 1010.0
20260508174657 73 200 0.0 4.0 0.00 0.00 0.00 31 1010.5
20260508173107 72 270 0.0 6.0 0.00 0.00 0.00 33 1010.5
20260508171617 72 274 0.0 1.0 0.00 0.00 0.00 36 1010.7
20260508170050 69 267 0.0 8.0 0.00 0.00 0.00 36 1010.9
20260508164551 70 267 0.0 1.0 0.00 0.00 0.00 36 1011.1
20260508163054 69 256 0.0 6.0 0.00 0.00 0.00 35 1011.2